Flag for Poland Weather past 2 weeks in Gdańsk, Poland

45 °F

Passing clouds.

Feels Like: 37 °F
Forecast: 40 / 50 °F
Wind: 16 mph from Southeast

Location: Gdansk-Rebiechowo

Current Time: Oct 7, 2015 at 12:28:55 PM

Latest Report: Oct 7, 2015 at 12:00 PM

Visibility: N/A

Pressure: 30.21 "Hg

Humidity: 57%

Dew point: 30 °F

Location of GdańskLocation

Historic Weather in Gdańsk — Graph


Gdańsk temperature yesterday

Maximum temperature yesterday: 55 °F (at 1:00 AM)
Minimum temperature yesterday: 43 °F (at 11:30 PM)
Average temperature yesterday: 51 °F

Past Weeks' High & Low Weather Summary

High70 °F (Oct 4, 3:30 PM)100% (Sep 24, 6:30 AM)30.69 "Hg (Sep 24, 6:30 AM)
Low36 °F (Oct 7, 6:00 AM)40% (Oct 3, 4:00 PM)29.71 "Hg (Sep 23, 4:30 AM)
Average53 °F79%30.19 "Hg
* Reported Sep 22 11:00 AM — Oct 7 11:00 AM, Gdańsk, Weather by CustomWeather, © 2015

Note: Actual official high and low records may vary slightly from our data, if they occured in-between our weather recording intervals... More about our weather records


Gdańsk weather history for previous 24 hours

Time TempWeatherWind HumidityBarometerVisibility
11:00 AM
Wed, Oct 7
43 °FSunny.22 mph57%30.21 "Hg10 mi
10:30 AM43 °FSunny.17 mph57%30.21 "Hg10 mi
10:00 AM41 °FSunny.18 mph61%30.21 "Hg10 mi
9:30 AM41 °FSunny.16 mph61%30.21 "Hg10 mi
9:00 AM39 °FSunny.18 mph65%30.21 "Hg10 mi
8:30 AM37 °FSunny.17 mph70%30.21 "Hg10 mi
8:00 AM37 °FSunny.17 mph70%30.21 "Hg10 mi
7:30 AM36 °FClear.14 mph75%30.18 "Hg10 mi
7:00 AM36 °FClear.14 mph75%30.18 "Hg10 mi
6:30 AM36 °FClear.15 mph75%30.18 "Hg10 mi
6:00 AM36 °FClear.14 mph75%30.15 "Hg10 mi
5:30 AM37 °FClear.14 mph70%30.15 "Hg10 mi
5:00 AM37 °FClear.14 mph75%30.15 "Hg10 mi
4:30 AM37 °FClear.14 mph75%30.15 "Hg10 mi
4:00 AM37 °FClear.14 mph75%30.15 "Hg10 mi
3:30 AM37 °FClear.13 mph75%30.15 "Hg10 mi
3:00 AM39 °FClear.14 mph75%30.15 "Hg10 mi
2:30 AM39 °FClear.15 mph75%30.15 "Hg10 mi
2:00 AM41 °FClear.15 mph70%30.12 "Hg10 mi
1:30 AM41 °FPassing clouds.15 mph70%30.12 "HgN/A
1:00 AM41 °FPassing clouds.13 mph70%30.12 "HgN/A
12:30 AM43 °FPassing clouds.16 mph66%30.12 "HgN/A
12:00 AM43 °FPassing clouds.14 mph66%30.12 "HgN/A
11:30 PM
Tue, Oct 6
43 °FPassing clouds.16 mph66%30.12 "HgN/A
11:00 PM45 °FPassing clouds.16 mph66%30.12 "HgN/A
10:30 PM45 °FPassing clouds.21 mph66%30.09 "HgN/A
10:00 PM45 °FPassing clouds.16 mph76%30.12 "HgN/A
9:30 PM46 °FPassing clouds.17 mph76%30.09 "HgN/A
9:00 PM46 °FPassing clouds.18 mph76%30.09 "HgN/A
8:30 PM46 °FPassing clouds.16 mph82%30.09 "HgN/A
8:00 PM48 °FPassing clouds.21 mph76%30.07 "HgN/A
7:30 PM48 °FPassing clouds.18 mph82%30.07 "HgN/A
7:00 PM50 °FPassing clouds.13 mph76%30.04 "HgN/A
6:30 PM50 °FPassing clouds.13 mph76%30.04 "HgN/A
6:00 PM52 °FSunny.13 mph67%30.04 "Hg10 mi
5:30 PM52 °FSunny.12 mph72%30.04 "Hg10 mi
5:00 PM52 °FPassing clouds.13 mph72%30.04 "HgN/A
4:30 PM54 °FPassing clouds.12 mph72%30.04 "HgN/A
4:00 PM54 °FPartly sunny.12 mph72%30.04 "HgN/A
3:30 PM54 °FPartly sunny.15 mph72%30.04 "HgN/A
3:00 PM54 °FPartly sunny.15 mph72%30.04 "HgN/A
2:30 PM54 °FPartly sunny.15 mph72%30.04 "HgN/A
2:00 PM54 °FPartly sunny.16 mph77%30.04 "HgN/A
1:30 PM52 °FPartly sunny.12 mph88%30.04 "HgN/A
1:00 PM52 °FPartly sunny.13 mph82%30.04 "HgN/A
12:30 PM52 °FPartly sunny.15 mph88%30.04 "HgN/A
12:00 PM52 °FPartly sunny.15 mph88%30.04 "HgN/A
Weather by CustomWeather, © 2015

See weather overviewHow to use our weather pages